Weather in Reading

United States     40°21′52″N   75°55′34″W
temp.,
°C
wind,
m/s
gust,
m/s
humid.,
%
clouds,
%
prec.,
mm/h
press.,
hPa
HPBL,
m
18 may, tue
tue1823:00+13sw11703 0.0 102710
02:00+11w117921 0.0 102710
05:00+10w118519 0.0 102710
08:00+15w23730 0.0 1028173
11:00+21wsw35560 0.0 1028890
14:00+23w33460 0.0 10271711
17:00+23wsw34470 0.0 10261352
20:00+17sw24740 0.0 102574
19 may, wed
wed1923:00+14wsw22800 0.0 102720
02:00+13wsw22804 0.0 102722
05:00+12wsw22830 0.0 102717
08:00+17nw13710 0.0 1028138
11:00+23wnw23540 0.0 1028681
14:00+26wnw23454 0.0 10271503
17:00+26w334839 0.0 10261337
20:00+20wsw247194 0.0 102656
20 may, thu
thu2023:00+18wnw226847 0.0 102718
02:00+17nw117399 0.0 102711
05:00+16n118162 0.0 102811
08:00+19ene247593 0.0 1030198
11:00+24e336248 0.0 1030772
14:00+26ese325397 0.0 10291397
17:00+26e225225 0.0 10281554
20:00+18s3877100 0.3 1030198
21 may, fri
fri2123:00+13s257299 0.0 1031108
02:00+12s117397 0.0 103225
05:00+12sw1171100 0.0 103217
08:00+15sw1265100 0.0 1033168
11:00+20sw345798 0.0 1032546
14:00+24sw345587 0.0 1030891
17:00+25sw2357100 0.0 10281236
20:00+20s2480100 0.0 102871
22 may, sat
sat2223:00+17s1178100 0.4 102714
02:00+17ssw2277100 0.4 102630
05:00+16ssw2274100 0.0 102447
08:00+18wsw2374100 0.0 1024169
11:00+23w2467100 0.0 1022564
14:00+25wnw3572100 1.3 10191084
17:00+20sse1187100 1.9 101766
20:00+20sw269294 2.4 1016131